Starlink 33843

operational
NORAD ID: 63507 Int'l Des: 2025-071 Owner: SPXS Country: US Constellation: starlink
LEOCIRCULAR

Über Starlink 33843

Beschreibung wird geladen...

Live-Position

3D-Globus wird geladen...

Nächste Überflüge

Höhenverlauf

Altitude vs Time

uPlot chart will show altitude changes over time

Zweizeiliger Elementsatz

1 63507U 25071Q 25305.50170575 .00029749 00000-0 10120-2 0 9998
2 63507 53.1607 15.3149 0001188 84.6483 275.4653 15.30215621 33126
Epoch: 1. Nov. 2025 • Age: 9 hours

Aktueller Status

Höhe 482.9 km
Geschwindigkeit 7.62 km/s
Subsatellitenpunkt -25.51°S, 8.29°W
Startdatum 7. Apr. 2025
Alter 0.5 years
Typ internet

Technische Details

Klassifizierung Payload
Masse 575.00 kg
Trockenmasse 530.00 kg
Gesamtmasse 575.00 kg
Länge 0.30 m
Durchmesser 4.10 m
Spannweite 29.00 m
Form Box + pan
Hersteller SPXS
Bus-Typ Starlink V2MO
Phasenstatus In Orbit
Besitzer/Staat SPXS/US

Große Konstellationen

Loading constellations...